Wind_Speed
30 33 29 28 28 28 30 34 33 32 34 32 35 33 28 29 32 30 28 28 27 28 24 22 20 16 14 12 9 7 5 4 3 3 1 5 9 18 21 21 22 20 20
32 32 29 29 26 27 27 31 30 31 32 33 35 29 27 30 33 30 30 30 34 31 27 23 21 18 16 13 11 10 7 6 4 2 2 6 12 17 22 23 23 19 22
32 31 30 28 24 25 27 27 30 30 34 32 29 27 29 31 32 31 36 36 36 33 27 21 20 16 17 16 13 13 12 10 10 6 4 5 10 17 22 19 20 25 20
34 30 30 29 27 27 24 24 29 28 27 24 25 30 34 32 33 35 37 39 36 33 28 21 18 17 19 17 16 15 10 10 10 6 4 6 8 13 15 22 25 22 24
34 33 30 31 28 25 19 22 20 28 29 28 30 28 29 32 35 41 41 38 41 35 27 25 19 19 18 15 14 12 10 11 8 6 5 5 8 14 17 19 20 23 23
32 31 30 20 19 9 13 21 29 34 34 34 35 34 28 29 34 34 46 42 36 42 32 27 21 19 18 17 13 11 13 11 7 5 4 5 9 12 13 16 17 18 7
28 26 11 8 11 12 25 28 32 34 38 37 37 42 39 38 43 41 42 36 38 34 30 27 26 22 19 17 16 17 14 11 10 9 6 7 7 14 15 16 17 15 14
23 21 14 13 19 21 26 31 33 34 36 38 38 41 44 42 47 45 42 42 38 28 24 25 25 23 19 19 17 15 13 9 9 10 9 9 10 14 14 15 17 18 16
19 18 17 12 20 25 26 30 33 38 36 36 37 41 44 44 49 46 39 45 38 29 26 22 22 24 20 16 15 14 11 11 9 8 7 8 9 11 10 14 16 16 11
18 17 18 17 20 26 29 32 34 40 39 39 39 38 43 47 45 47 44 44 39 33 29 23 22 22 17 15 14 13 14 14 12 10 12 14 14 13 12 12 12 12 10
18 22 24 23 26 25 32 34 38 41 45 39 40 37 36 43 45 45 39 34 33 29 31 31 25 20 19 18 17 18 17 13 13 14 17 20 20 18 14 16 14 12 13
22 25 25 25 24 23 36 37 39 42 44 39 41 36 31 39 40 39 39 37 32 34 33 30 25 21 20 20 20 17 16 16 19 20 20 19 18 17 17 18 16 15 13
23 26 29 29 30 24 29 36 37 35 38 33 35 32 32 34 39 40 39 35 32 35 32 27 23 22 21 23 21 19 20 23 24 21 19 17 15 20 22 19 17 16 10
22 25 28 28 30 27 28 30 29 29 33 32 32 33 32 31 35 38 38 35 33 34 30 27 26 25 25 24 24 26 26 25 24 21 18 16 18 23 22 20 19 23 14
24 26 28 30 28 29 30 26 24 24 27 32 30 33 33 31 32 37 35 32 33 32 32 29 29 28 27 26 27 31 28 27 24 21 17 22 21 20 18 19 17 18 14
23 25 26 28 28 28 29 34 33 32 33 36 38 42 38 40 38 35 32 31 31 32 34 28 23 23 24 21 25 25 27 25 23 21 26 22 18 17 18 17 16 17 17
22 26 27 26 24 20 23 28 30 39 41 40 39 38 37 38 35 32 30 31 31 33 34 25 23 24 23 26 26 23 24 24 27 28 25 20 17 15 16 18 19 19 19
28 29 28 25 22 23 24 28 28 30 30 32 38 37 35 34 32 30 30 31 33 32 29 24 25 26 27 26 25 25 24 29 30 26 21 19 16 15 17 19 20 21 21
29 28 25 26 28 28 28 30 30 31 32 32 34 35 32 32 30 28 28 33 30 27 26 27 26 24 25 25 25 25 30 31 26 23 20 19 18 16 18 19 19 22 21
30 30 28 28 26 28 27 29 29 28 27 26 25 24 30 31 31 31 33 32 29 28 27 26 23 22 24 24 25 27 31 30 25 23 22 19 18 17 18 19 20 21 21
29 30 26 23 23 25 27 27 26 27 25 26 27 29 30 34 31 31 30 28 28 26 25 25 25 23 22 23 27 28 27 26 25 26 25 20 20 19 19 18 18 21 21
29 27 25 24 24 27 28 28 28 28 27 27 29 31 30 32 31 28 28 27 25 25 24 24 25 23 23 25 25 25 23 26 27 27 25 23 22 19 19 20 21 21 22
26 26 27 28 29 31 29 30 27 27 27 27 29 29 28 26 27 26 24 23 23 23 22 22 23 24 25 23 22 22 22 25 27 26 26 26 23 20 20 21 23 24 26
23 25 26 24 25 27 28 28 28 29 28 28 29 27 26 26 26 23 21 20 20 19 19 20 22 23 23 24 22 21 21 23 26 25 27 26 22 21 20 21 22 24 24
21 23 27 26 26 27 27 26 28 27 27 27 27 29 26 26 24 21 19 17 17 17 19 19 20 20 22 23 22 21 21 22 26 26 29 27 23 22 22 22 22 23 26
19 23 26 27 26 27 28 27 26 27 27 27 26 26 26 24 23 20 19 17 17 16 16 18 21 19 20 22 22 21 20 23 25 28 29 28 25 25 23 24 24 26 26
Wind_Direction
304 304 304 302 292 284 270 253 242 229 218 211 219 217 206 207 206 196 187 181 180 168 155 150 141 142 139 135 126 124 140 154 123 194 251 340 339 342 340 344 344 339 336
299 300 296 293 293 282 280 249 233 220 209 211 214 206 197 196 199 193 170 169 165 154 146 146 139 145 134 124 123 117 107 103 159 119 3 344 339 343 343 345 347 347 343
303 298 300 297 292 283 276 241 223 209 212 207 191 184 182 188 181 175 176 165 158 151 145 149 140 142 131 122 119 110 95 92 78 72 8 337 330 344 344 349 347 352 345
307 305 302 295 287 293 277 224 210 198 176 171 166 173 183 174 164 158 156 158 151 146 140 146 146 146 131 127 119 106 100 79 60 48 11 336 335 343 353 346 344 347 338
309 307 297 289 294 288 237 214 186 162 155 157 153 145 153 154 152 151 147 141 142 131 134 135 143 129 120 118 115 109 90 73 67 33 5 340 347 352 351 343 339 337 336
310 306 301 292 307 280 172 157 135 131 133 137 130 128 121 124 132 128 136 130 122 126 134 133 129 122 119 110 111 95 81 76 53 25 356 3 1 349 346 340 335 341 353
322 325 340 12 35 86 116 115 113 117 122 115 115 120 110 114 121 118 120 119 122 124 127 127 121 127 127 124 110 97 81 60 50 47 34 17 339 351 340 336 332 333 319
336 347 12 82 85 94 101 103 105 109 110 110 110 113 112 113 123 124 122 118 116 117 122 119 124 123 127 123 109 92 72 59 51 41 21 359 350 350 346 331 325 326 332
350 18 29 71 98 103 104 108 110 108 106 107 111 113 113 116 126 122 116 115 112 114 108 109 117 124 123 113 98 86 80 69 54 38 21 9 2 356 355 341 339 345 340
5 31 58 72 90 104 109 109 111 110 107 108 105 106 112 115 122 121 115 114 114 112 109 111 118 113 107 92 89 89 75 49 34 30 29 26 18 10 13 354 335 335 329
34 51 66 80 90 103 107 108 109 108 105 104 104 105 109 117 120 118 119 113 113 110 107 104 109 105 96 92 86 73 65 55 41 36 31 25 17 9 2 1 355 338 316
61 62 64 76 89 102 106 104 104 108 106 109 106 102 105 112 121 123 118 114 116 114 111 110 108 104 98 88 75 67 60 51 42 35 28 17 5 353 356 359 1 352 331
68 68 68 73 79 87 100 106 104 107 110 116 117 118 114 117 121 119 117 119 117 115 114 109 111 101 89 78 68 60 54 44 37 31 19 4 353 1 5 359 357 348 349
68 72 79 81 80 78 87 94 104 116 115 118 122 120 120 117 114 113 113 115 115 111 112 104 95 89 81 74 64 54 48 42 38 30 12 357 8 14 9 3 352 348 348
70 73 74 73 76 81 84 89 95 103 112 118 117 117 117 112 119 122 117 114 112 110 106 99 86 76 70 61 55 48 42 39 32 27 12 15 9 6 359 358 354 348 358
79 78 79 82 82 83 94 93 98 105 111 112 114 114 115 124 124 115 108 105 110 107 91 80 75 68 61 54 49 43 37 34 29 24 25 15 3 355 348 357 360 357 354
79 84 81 84 82 88 93 100 97 92 102 104 107 111 114 120 118 111 107 108 103 95 87 81 75 69 63 55 50 42 35 32 32 29 19 8 360 352 355 3 6 1 359
78 88 87 83 94 98 99 96 93 91 89 82 104 110 112 115 116 115 113 106 89 83 81 76 72 66 61 55 48 40 35 34 32 22 12 6 1 0 3 8 9 3 354
86 84 87 85 81 87 91 94 97 96 95 96 96 102 115 116 113 110 105 97 93 86 80 76 72 69 62 56 50 45 40 36 30 16 13 7 10 11 13 11 7 5 3
100 95 99 95 86 91 96 97 96 96 96 96 98 101 112 113 99 93 95 93 88 82 79 77 75 70 63 56 49 45 40 33 25 20 20 14 13 19 20 12 10 2 359
110 113 106 95 93 96 98 97 100 101 99 100 101 111 111 104 101 99 95 88 84 81 77 75 68 66 64 57 50 46 39 30 27 26 24 18 19 22 20 17 15 9 7
119 111 101 97 100 102 102 103 103 102 101 100 100 106 108 106 102 99 95 90 84 81 79 73 69 63 60 57 50 44 37 30 29 27 27 27 26 23 23 21 19 18 15
116 111 108 107 107 108 104 105 106 105 103 100 105 106 107 106 104 101 98 95 88 83 79 76 71 63 59 55 49 41 38 34 30 28 30 33 29 26 24 25 22 21 19
117 116 114 110 112 110 112 114 113 113 110 110 113 112 110 106 102 101 98 96 94 87 80 74 70 66 60 56 50 45 43 36 32 34 37 38 32 30 29 30 27 25 23
118 121 120 118 117 115 113 110 111 114 115 117 116 116 113 109 105 101 100 96 93 87 81 73 68 65 62 54 50 48 43 37 34 37 41 42 37 36 34 34 32 31 30
121 121 121 121 119 119 118 117 117 119 119 121 121 118 114 110 105 102 97 91 88 86 86 79 71 66 63 55 49 46 44 38 35 38 44 44 41 38 38 37 38 35 31
Height
684 677 669 665 661 659 657 655 654 657 657 664 669 673 680 685 689 694 700 705 713 720 725 731 735 739 744 747 749 752 756 758 762 765 765 763 764 761 758 754 749 744 740
678 670 663 657 652 650 645 646 645 648 651 656 662 666 675 679 685 690 696 703 711 720 725 731 735 742 744 746 751 755 758 758 762 763 762 763 763 760 756 750 746 741 736
671 663 655 648 644 640 635 635 638 641 646 651 657 661 671 676 680 688 695 703 711 716 723 735 739 744 746 749 754 756 759 762 761 762 763 763 762 759 753 749 744 738 734
662 655 647 641 635 630 626 628 631 634 639 646 655 658 668 675 680 687 695 703 709 713 721 735 741 746 747 752 754 757 762 763 761 765 765 763 760 758 754 749 740 738 731
656 647 640 632 625 622 621 624 629 630 635 645 654 662 670 675 680 686 693 701 702 712 730 737 748 750 751 752 758 762 762 762 765 766 765 763 760 757 754 749 744 737 730
652 641 629 625 620 615 617 624 627 631 638 647 655 662 674 679 683 691 691 703 712 713 737 742 748 750 753 757 762 763 762 764 768 766 766 763 760 758 753 749 744 739 732
650 639 629 624 622 621 620 626 630 637 643 652 660 664 678 685 686 695 697 711 719 731 739 745 747 753 757 762 764 762 765 769 770 767 766 762 761 757 754 747 744 741 737
650 642 635 630 629 630 631 633 639 646 651 657 668 673 681 691 693 701 711 716 728 740 748 750 753 757 762 764 764 766 768 772 770 765 764 763 759 755 753 750 744 738 734
653 646 642 639 636 637 640 643 648 652 661 669 676 681 685 698 702 705 720 721 735 751 751 756 760 763 764 766 766 768 773 772 768 766 764 761 757 754 751 748 744 737 734
657 652 648 647 645 645 648 651 657 660 669 677 685 693 698 702 715 718 726 733 743 750 756 764 767 769 770 769 771 772 770 769 769 766 762 758 754 753 749 747 743 738 738
664 659 656 656 654 658 658 661 664 669 676 688 694 705 713 717 724 727 737 742 748 755 761 764 773 775 774 776 775 773 768 769 769 765 760 756 754 752 749 745 742 739 737
670 666 664 664 666 671 666 671 675 679 684 696 702 713 724 726 733 740 742 748 758 760 766 773 777 780 780 777 775 773 770 770 765 761 759 758 756 754 748 744 740 738 735
678 676 674 674 677 679 679 681 686 690 696 708 714 725 731 739 745 749 754 763 769 769 771 778 783 781 780 776 775 775 770 767 765 763 763 762 760 754 749 743 739 736 732
686 686 685 687 691 692 694 695 700 707 708 715 723 728 737 745 750 757 763 770 774 772 779 782 780 780 779 778 778 773 770 770 768 768 768 765 758 751 749 746 742 735 730
696 695 696 697 700 703 704 709 712 717 718 720 728 731 737 748 756 762 767 773 773 775 776 781 781 781 780 781 778 775 776 774 775 772 772 765 762 756 754 750 745 739 733
705 706 707 709 713 715 717 722 727 729 731 732 735 738 748 755 760 765 769 771 776 778 778 780 786 786 784 785 781 783 783 782 779 777 769 768 765 762 759 753 747 741 735
714 715 718 721 724 727 728 728 731 739 739 743 747 751 756 759 765 769 773 779 782 782 782 787 788 788 790 789 789 792 789 788 783 779 778 773 768 764 761 753 747 742 736
723 726 729 732 735 736 736 738 741 744 750 757 761 764 768 771 776 781 785 786 788 790 793 794 794 795 795 796 797 799 797 790 787 787 784 778 772 767 762 756 750 745 740
734 737 739 741 741 742 746 750 754 758 762 769 775 779 783 784 786 789 790 790 794 796 798 799 799 804 802 803 803 805 798 794 793 792 787 785 775 769 764 760 754 748 744
744 746 748 750 751 755 758 761 765 769 774 779 784 788 790 789 794 796 798 800 804 805 805 806 808 808 807 809 809 805 801 800 800 796 790 786 779 772 766 762 758 753 748
753 755 757 760 762 764 767 771 775 779 784 788 791 793 795 796 800 804 807 810 810 813 815 816 816 816 816 815 812 808 810 808 804 798 793 788 781 775 771 767 763 758 753
760 762 765 768 770 773 775 779 783 787 792 794 798 800 803 807 809 814 815 818 820 821 823 824 822 825 820 817 816 817 817 812 806 801 797 790 783 780 775 771 767 763 757
767 769 771 775 778 781 783 787 793 796 798 802 805 809 814 819 819 821 825 826 827 830 831 831 829 829 824 824 823 823 820 816 811 807 801 793 788 785 780 776 772 767 761
775 776 779 783 787 789 793 798 801 804 807 810 814 818 823 824 826 830 832 834 834 838 839 837 834 832 834 830 830 828 825 821 817 811 804 798 794 790 785 782 778 774 768
781 783 786 789 793 797 800 803 806 812 816 819 822 824 828 830 833 837 840 842 842 842 841 843 842 842 837 836 836 833 830 826 822 815 808 804 800 795 791 788 785 781 775
787 788 791 794 798 801 805 811 815 818 823 827 831 832 833 838 837 844 843 846 846 847 850 848 846 848 845 842 840 838 834 830 826 820 814 810 805 801 797 794 791 787 783